Location: Frizzleburg
(41.0764°N, 80.4548°W)
Time: 05:01:38
(UTC+00:00)

Cosmos 1484 Rocket - Pass Details

Date: 17 November 2019
Orbit: 507 x 559 km, 97.4° (Epoch: 12 December)

Event Time Altitude Azimuth Distance (km) Brightness Sun altitude
Rises 10:23:13 0° 12° (NNE) 2,748 6.4 -20.4°
Reaches altitude 10° 10:25:22 10° 13° (NNE) 1,852 5.6 -20.0°
Maximum altitude 10:29:23 84° 101° (E) 568 2.8 -19.2°
Drops below altitude 10° 10:33:23 10° 191° (S) 1,838 5.5 -18.5°
Sets 10:35:30 0° 192° (SSW) 2,726 6.4 -18.1°
